Time,TemperatureF,DewpointF,PressureIn,WindDirection,WindDirectionDegrees,WindSpeedMPH,WindSpeedGustMPH,Humidity,HourlyPrecipIn,Conditions,Clouds,dailyrainin,SoftwareType,DateUTC
2013-02-03 00:48:00,39.3,39.3,29.59,ENE,65,0.0,0.0,100,0.00,,,0.00,VWS V14.01,2013-02-03 05:48:00,
2013-02-03 00:53:00,39.3,39.3,29.59,ENE,65,0.0,0.0,100,0.00,,,0.00,VWS V14.01,2013-02-03 05:53:00,
2013-02-03 00:58:00,38.7,38.7,29.59,ENE,65,0.0,0.0,100,0.00,,,0.00,VWS V14.01,2013-02-03 05:58:00,
2013-02-03 01:00:00,38.6,38.6,29.59,ENE,65,0.0,0.0,100,0.00,,,0.00,VWS V14.01,2013-02-03 06:00:00,
2013-02-03 01:03:00,38.6,38.6,29.59,ENE,65,0.0,0.0,100,0.00,,,0.00,VWS V14.01,2013-02-03 06:03:00,
2013-02-03 01:08:00,38.6,38.6,29.59,ENE,65,0.0,0.0,100,0.00,,,0.00,VWS V14.01,2013-02-03 06:08:00,
2013-02-03 02:03:00,38.2,38.2,29.56,NE,50,2.7,4.9,100,0.00,,,0.00,VWS V14.01,2013-02-03 07:03:00,
2013-02-03 02:08:00,38.4,38.4,29.56,ENE,64,0.0,4.9,100,0.00,,,0.00,VWS V14.01,2013-02-03 07:08:00,
2013-02-03 02:13:00,38.4,38.4,29.56,ENE,66,2.2,4.9,100,0.00,,,0.00,VWS V14.01,2013-02-03 07:13:00,
2013-02-03 02:15:00,38.4,38.4,29.56,ENE,75,2.7,4.9,100,0.00,,,0.00,VWS V14.01,2013-02-03 07:15:00,
2013-02-03 02:18:00,38.4,38.4,29.56,ENE,75,2.7,4.9,100,0.00,,,0.00,VWS V14.01,2013-02-03 07:18:00,
2013-02-03 02:23:00,38.4,38.4,29.56,ENE,75,2.7,4.9,100,0.00,,,0.00,VWS V14.01,2013-02-03 07:23:00,
2013-02-03 03:19:00,38.4,38.4,29.56,SE,146,0.0,6.3,100,0.00,,,0.00,VWS V14.01,2013-02-03 08:19:00,
2013-02-03 03:24:00,38.2,38.2,29.56,East,86,0.0,6.3,100,0.00,,,0.00,VWS V14.01,2013-02-03 08:24:00,
2013-02-03 03:29:00,38.0,38.0,29.56,East,85,0.0,6.3,100,0.00,,,0.00,VWS V14.01,2013-02-03 08:29:00,
2013-02-03 03:30:00,38.0,38.0,29.56,East,82,0.0,6.3,100,0.00,,,0.00,VWS V14.01,2013-02-03 08:30:00,
2013-02-03 03:34:00,38.0,38.0,29.56,East,82,0.0,6.3,100,0.00,,,0.00,VWS V14.01,2013-02-03 08:34:00,
2013-02-03 03:39:00,38.0,38.0,29.56,East,82,0.0,6.3,100,0.00,,,0.00,VWS V14.01,2013-02-03 08:39:00,
2013-02-03 04:34:00,36.4,36.4,29.56,ENE,64,0.0,0.0,100,0.00,,,0.00,VWS V14.01,2013-02-03 09:34:00,
2013-02-03 04:39:00,36.4,36.4,29.56,ENE,61,0.0,0.0,100,0.00,,,0.00,VWS V14.01,2013-02-03 09:39:00,
2013-02-03 04:43:00,36.2,36.2,29.56,East,90,0.0,0.0,100,0.00,,,0.00,VWS V14.01,2013-02-03 09:43:00,
2013-02-03 04:44:00,36.2,36.2,29.56,ENE,73,0.0,0.0,100,0.00,,,0.00,VWS V14.01,2013-02-03 09:44:00,
2013-02-03 04:49:00,36.2,36.2,29.56,East,90,0.0,0.0,100,0.00,,,0.00,VWS V14.01,2013-02-03 09:49:00,
2013-02-03 04:54:00,36.0,36.0,29.56,NE,54,0.0,0.0,100,0.00,,,0.00,VWS V14.01,2013-02-03 09:54:00,
2013-02-03 04:59:00,36.0,36.0,29.56,ENE,65,0.0,0.0,100,0.00,,,0.00,VWS V14.01,2013-02-03 09:59:00,
2013-02-03 05:04:00,35.9,35.9,29.53,ENE,65,0.0,0.0,100,0.00,,,0.00,VWS V14.01,2013-02-03 10:04:00,
2013-02-03 05:09:00,35.9,35.9,29.53,East,96,0.0,0.0,100,0.00,,,0.00,VWS V14.01,2013-02-03 10:09:00,
2013-02-03 05:14:00,35.9,35.9,29.53,ENE,66,0.0,0.0,100,0.00,,,0.00,VWS V14.01,2013-02-03 10:14:00,
2013-02-03 05:19:00,35.7,35.7,29.56,East,84,0.0,0.0,100,0.00,,,0.00,VWS V14.01,2013-02-03 10:19:00,
2013-02-03 05:24:00,35.7,35.7,29.56,ENE,78,0.0,0.0,100,0.00,,,0.00,VWS V14.01,2013-02-03 10:24:00,
2013-02-03 05:29:00,35.5,35.5,29.56,East,83,0.0,0.0,100,0.00,,,0.00,VWS V14.01,2013-02-03 10:29:00,
2013-02-03 05:34:00,35.5,35.5,29.56,SSW,193,0.0,0.0,100,0.00,,,0.00,VWS V14.01,2013-02-03 10:34:00,
2013-02-03 05:39:00,35.3,35.3,29.56,East,82,0.0,0.0,100,0.00,,,0.00,VWS V14.01,2013-02-03 10:39:00,
2013-02-03 05:43:00,35.3,35.3,29.56,ENE,72,0.0,0.0,100,0.00,,,0.00,VWS V14.01,2013-02-03 10:43:00,
2013-02-03 05:44:00,35.3,35.3,29.56,ENE,63,0.0,0.0,100,0.00,,,0.00,VWS V14.01,2013-02-03 10:44:00,
2013-02-03 05:49:00,35.3,35.3,29.56,NE,43,0.0,0.0,100,0.00,,,0.00,VWS V14.01,2013-02-03 10:49:00,
2013-02-03 05:54:00,35.3,35.3,29.56,ENE,75,0.0,0.0,100,0.00,,,0.00,VWS V14.01,2013-02-03 10:54:00,
2013-02-03 05:59:00,35.3,35.3,29.56,East,87,0.0,0.0,100,0.00,,,0.00,VWS V14.01,2013-02-03 10:59:00,
2013-02-03 06:04:00,35.1,35.1,29.56,ENE,66,0.0,0.0,100,0.00,,,0.00,VWS V14.01,2013-02-03 11:04:00,
2013-02-03 06:09:00,35.1,35.1,29.56,NE,36,0.0,0.0,100,0.00,,,0.00,VWS V14.01,2013-02-03 11:09:00,
2013-02-03 06:13:00,35.1,35.1,29.56,East,79,0.0,0.0,100,0.00,,,0.00,VWS V14.01,2013-02-03 11:13:00,
2013-02-03 06:14:00,35.1,35.1,29.56,ENE,74,0.0,0.0,100,0.00,,,0.00,VWS V14.01,2013-02-03 11:14:00,
2013-02-03 06:19:00,35.1,35.1,29.56,ESE,122,0.0,0.0,100,0.00,,,0.00,VWS V14.01,2013-02-03 11:19:00,
2013-02-03 06:24:00,35.0,35.0,29.56,ENE,64,0.0,0.0,100,0.00,,,0.00,VWS V14.01,2013-02-03 11:24:00,
2013-02-03 06:29:00,34.8,34.8,29.56,ENE,68,0.0,0.0,100,0.00,,,0.00,VWS V14.01,2013-02-03 11:29:00,
2013-02-03 06:34:00,34.8,34.8,29.56,ENE,61,0.0,0.0,100,0.00,,,0.00,VWS V14.01,2013-02-03 11:34:00,
2013-02-03 06:39:00,34.6,34.6,29.56,ENE,70,0.0,0.0,100,0.00,,,0.00,VWS V14.01,2013-02-03 11:39:00,
2013-02-03 06:43:00,34.6,34.6,29.56,East,82,0.0,0.0,100,0.00,,,0.00,VWS V14.01,2013-02-03 11:43:00,
2013-02-03 06:44:00,34.6,34.6,29.56,East,87,0.0,0.0,100,0.00,,,0.00,VWS V14.01,2013-02-03 11:44:00,
2013-02-03 06:49:00,34.6,34.6,29.56,ENE,74,0.0,0.0,100,0.00,,,0.00,VWS V14.01,2013-02-03 11:49:00,
2013-02-03 06:54:00,34.4,34.4,29.56,ENE,69,0.0,0.0,100,0.00,,,0.00,VWS V14.01,2013-02-03 11:54:00,
2013-02-03 06:59:00,34.4,34.4,29.56,East,90,0.0,0.0,100,0.00,,,0.00,VWS V14.01,2013-02-03 11:59:00,
2013-02-03 07:04:00,34.4,34.4,29.56,ENE,76,0.0,0.0,100,0.00,,,0.00,VWS V14.01,2013-02-03 12:04:00,
2013-02-03 07:09:00,34.2,34.2,29.56,East,80,0.0,0.0,100,0.00,,,0.00,VWS V14.01,2013-02-03 12:09:00,
2013-02-03 07:13:00,34.1,34.1,29.56,ESE,111,0.0,0.0,100,0.00,,,0.00,VWS V14.01,2013-02-03 12:13:00,
2013-02-03 07:14:00,34.1,34.1,29.56,East,91,0.0,0.0,100,0.00,,,0.00,VWS V14.01,2013-02-03 12:14:00,
2013-02-03 07:19:00,34.1,34.1,29.56,NE,52,0.0,0.0,100,0.00,,,0.00,VWS V14.01,2013-02-03 12:19:00,
2013-02-03 07:24:00,34.2,34.2,29.56,ENE,77,0.0,0.0,100,0.00,,,0.00,VWS V14.01,2013-02-03 12:24:00,
2013-02-03 07:29:00,34.2,34.2,29.56,ENE,69,0.0,0.0,100,0.00,,,0.00,VWS V14.01,2013-02-03 12:29:00,
2013-02-03 07:34:00,34.2,34.2,29.56,ENE,77,0.0,0.0,100,0.00,,,0.00,VWS V14.01,2013-02-03 12:34:00,
2013-02-03 07:39:00,34.4,34.4,29.56,NE,48,0.0,0.0,100,0.00,,,0.00,VWS V14.01,2013-02-03 12:39:00,
2013-02-03 07:44:00,34.4,34.4,29.56,ENE,69,0.0,0.0,100,0.00,,,0.00,VWS V14.01,2013-02-03 12:44:00,
2013-02-03 07:49:00,34.4,34.4,29.56,ENE,59,0.0,0.0,100,0.00,,,0.00,VWS V14.01,2013-02-03 12:49:00,
2013-02-03 07:54:00,34.6,34.6,29.56,ENE,74,0.0,0.0,100,0.00,,,0.00,VWS V14.01,2013-02-03 12:54:00,
2013-02-03 07:59:00,34.6,34.6,29.56,NE,39,0.0,0.0,100,0.00,,,0.00,VWS V14.01,2013-02-03 12:59:00,
2013-02-03 08:04:00,34.8,34.8,29.56,NE,51,0.0,0.0,100,0.00,,,0.00,VWS V14.01,2013-02-03 13:04:00,
2013-02-03 08:09:00,34.8,34.8,29.56,ENE,72,0.0,0.0,100,0.00,,,0.00,VWS V14.01,2013-02-03 13:09:00,
2013-02-03 08:13:00,35.0,35.0,29.56,NE,47,0.0,0.0,100,0.00,,,0.00,VWS V14.01,2013-02-03 13:13:00,
2013-02-03 08:14:00,35.1,35.1,29.56,ENE,72,0.0,0.0,100,0.00,,,0.00,VWS V14.01,2013-02-03 13:14:00,
2013-02-03 08:19:00,35.1,35.1,29.53,NE,43,0.0,0.0,100,0.00,,,0.00,VWS V14.01,2013-02-03 13:19:00,
2013-02-03 08:23:00,35.3,35.3,29.53,ENE,61,0.0,0.0,100,0.00,,,0.00,VWS V14.01,2013-02-03 13:23:00,
2013-02-03 08:29:00,35.7,35.7,29.56,East,93,0.0,0.0,100,0.00,,,0.00,VWS V14.01,2013-02-03 13:29:00,
2013-02-03 08:34:00,36.0,36.0,29.56,East,85,0.0,0.0,100,0.00,,,0.00,VWS V14.01,2013-02-03 13:34:00,
2013-02-03 08:39:00,36.9,36.9,29.56,ENE,73,0.0,0.0,100,0.00,,,0.00,VWS V14.01,2013-02-03 13:39:00,
2013-02-03 08:44:00,38.2,38.2,29.56,ENE,74,0.0,0.0,100,0.00,,,0.00,VWS V14.01,2013-02-03 13:44:00,
2013-02-03 08:49:00,38.4,38.4,29.56,NNE,32,0.0,0.0,100,0.00,,,0.00,VWS V14.01,2013-02-03 13:49:00,
2013-02-03 08:53:00,38.7,38.7,29.56,East,92,0.0,0.0,100,0.00,,,0.00,VWS V14.01,2013-02-03 13:53:00,
2013-02-03 08:59:00,39.3,39.3,29.56,NNE,29,0.0,0.0,100,0.00,,,0.00,VWS V14.01,2013-02-03 13:59:00,
2013-02-03 09:04:00,39.6,39.6,29.56,ENE,66,0.0,0.0,100,0.00,,,0.00,VWS V14.01,2013-02-03 14:04:00,
2013-02-03 09:09:00,40.7,40.7,29.56,NE,53,0.0,0.0,100,0.00,,,0.00,VWS V14.01,2013-02-03 14:09:00,
2013-02-03 09:14:00,41.8,41.8,29.56,ENE,77,0.0,0.0,100,0.00,,,0.00,VWS V14.01,2013-02-03 14:14:00,
2013-02-03 09:19:00,42.2,42.2,29.56,NE,48,0.0,0.0,100,0.00,,,0.00,VWS V14.01,2013-02-03 14:19:00,
2013-02-03 09:23:00,42.9,42.9,29.56,NE,55,0.0,0.0,100,0.00,,,0.00,VWS V14.01,2013-02-03 14:23:00,
2013-02-03 09:24:00,43.2,43.2,29.56,East,89,0.0,0.0,100,0.00,,,0.00,VWS V14.01,2013-02-03 14:24:00,
2013-02-03 09:29:00,43.1,43.1,29.56,NE,51,0.0,0.0,100,0.00,,,0.00,VWS V14.01,2013-02-03 14:29:00,
2013-02-03 09:34:00,42.9,42.9,29.56,ENE,64,0.0,0.0,100,0.00,,,0.00,VWS V14.01,2013-02-03 14:34:00,
2013-02-03 09:39:00,43.4,43.4,29.56,ENE,76,0.0,0.0,100,0.00,,,0.00,VWS V14.01,2013-02-03 14:39:00,
2013-02-03 09:45:00,44.5,44.2,29.56,NNE,26,0.0,0.0,99,0.00,,,0.00,VWS V14.01,2013-02-03 14:45:00,
2013-02-03 09:50:00,44.9,44.6,29.56,NE,41,0.0,0.0,99,0.00,,,0.00,VWS V14.01,2013-02-03 14:50:00,
2013-02-03 09:53:00,45.0,43.5,29.56,ENE,75,0.0,0.0,94,0.00,,,0.00,VWS V14.01,2013-02-03 14:53:00,
2013-02-03 09:55:00,45.0,42.9,29.56,ENE,59,0.0,0.0,92,0.00,,,0.00,VWS V14.01,2013-02-03 14:55:00,
2013-02-03 10:00:00,45.2,43.0,29.56,ENE,70,0.0,0.0,92,0.00,,,0.00,VWS V14.01,2013-02-03 15:00:00,
2013-02-03 10:05:00,45.0,43.5,29.56,NE,51,0.0,0.0,94,0.00,,,0.00,VWS V14.01,2013-02-03 15:05:00,
2013-02-03 10:10:00,45.4,43.2,29.56,NE,48,0.0,7.6,92,0.00,,,0.00,VWS V14.01,2013-02-03 15:10:00,
2013-02-03 10:15:00,45.9,43.8,29.53,ENE,73,0.0,10.5,92,0.00,,,0.00,VWS V14.01,2013-02-03 15:15:00,
2013-02-03 10:20:00,46.5,43.6,29.53,ENE,64,2.2,10.5,90,0.00,,,0.00,VWS V14.01,2013-02-03 15:20:00,
2013-02-03 10:23:00,47.0,44.2,29.53,NE,38,4.0,10.5,90,0.00,,,0.00,VWS V14.01,2013-02-03 15:23:00,
2013-02-03 10:25:00,47.4,44.5,29.53,ENE,75,5.8,8.3,90,0.00,,,0.00,VWS V14.01,2013-02-03 15:25:00,
2013-02-03 10:30:00,48.1,43.8,29.53,SSE,149,3.1,8.7,85,0.00,,,0.00,VWS V14.01,2013-02-03 15:30:00,
2013-02-03 10:35:00,48.5,43.5,29.53,ENE,76,5.4,11.0,83,0.00,,,0.00,VWS V14.01,2013-02-03 15:35:00,
2013-02-03 10:40:00,48.6,43.7,29.53,NE,41,6.3,11.0,83,0.00,,,0.00,VWS V14.01,2013-02-03 15:40:00,
2013-02-03 10:45:00,49.5,44.5,29.53,NE,42,5.4,11.0,83,0.00,,,0.00,VWS V14.01,2013-02-03 15:45:00,
2013-02-03 10:50:00,50.1,42.0,29.53,ENE,75,10.5,11.0,74,0.00,,,0.00,VWS V14.01,2013-02-03 15:50:00,
2013-02-03 10:55:00,50.4,40.7,29.53,ENE,64,5.4,16.3,69,0.00,,,0.00,VWS V14.01,2013-02-03 15:55:00,
2013-02-03 11:00:00,51.0,41.2,29.53,ENE,59,10.1,16.3,69,0.00,,,0.00,VWS V14.01,2013-02-03 16:00:00,
2013-02-03 11:05:00,51.0,41.2,29.53,NE,47,8.7,16.3,69,0.00,,,0.00,VWS V14.01,2013-02-03 16:05:00,
2013-02-03 11:10:00,51.0,40.3,29.53,NE,35,4.9,16.3,67,0.00,,,0.00,VWS V14.01,2013-02-03 16:10:00,
2013-02-03 11:15:00,52.2,40.6,29.53,NE,56,8.7,16.3,64,0.00,,,0.00,VWS V14.01,2013-02-03 16:15:00,
2013-02-03 11:20:00,52.6,40.9,29.53,ENE,66,3.6,16.3,64,0.00,,,0.00,VWS V14.01,2013-02-03 16:20:00,
2013-02-03 11:23:00,52.8,40.2,29.53,ESE,105,8.3,16.3,62,0.00,,,0.00,VWS V14.01,2013-02-03 16:23:00,
2013-02-03 11:25:00,53.1,40.5,29.53,SE,138,3.1,9.2,62,0.00,,,0.00,VWS V14.01,2013-02-03 16:25:00,
2013-02-03 11:30:00,54.0,41.4,29.53,NE,52,3.6,9.2,62,0.00,,,0.00,VWS V14.01,2013-02-03 16:30:00,
2013-02-03 11:35:00,54.4,40.7,29.53,NE,38,4.9,9.2,60,0.00,,,0.00,VWS V14.01,2013-02-03 16:35:00,
2013-02-03 11:40:00,55.5,41.8,29.53,East,82,4.0,9.2,60,0.00,,,0.00,VWS V14.01,2013-02-03 16:40:00,
2013-02-03 11:45:00,55.3,41.6,29.53,NE,36,6.3,12.8,60,0.00,,,0.00,VWS V14.01,2013-02-03 16:45:00,
2013-02-03 11:50:00,55.1,41.4,29.53,ENE,66,5.4,12.8,60,0.00,,,0.00,VWS V14.01,2013-02-03 16:50:00,
2013-02-03 11:55:00,55.7,41.9,29.53,ENE,60,8.7,13.2,60,0.00,,,0.00,VWS V14.01,2013-02-03 16:55:00,
2013-02-03 12:00:00,55.7,40.9,29.53,ENE,57,2.7,14.5,58,0.00,,,0.00,VWS V14.01,2013-02-03 17:00:00,
2013-02-03 12:05:00,55.8,41.1,29.53,SW,219,11.0,14.5,58,0.00,,,0.00,VWS V14.01,2013-02-03 17:05:00,
2013-02-03 12:10:00,55.8,41.1,29.53,East,93,12.8,18.8,58,0.00,,,0.00,VWS V14.01,2013-02-03 17:10:00,
2013-02-03 12:15:00,56.0,41.2,29.50,SSW,208,3.6,18.8,58,0.00,,,0.00,VWS V14.01,2013-02-03 17:15:00,
2013-02-03 12:20:00,56.0,41.2,29.50,SSW,208,3.6,18.8,58,0.00,,,0.00,VWS V14.01,2013-02-03 17:20:00,
2013-02-03 13:20:00,58.9,42.9,29.47,NE,48,8.1,21.5,55,0.00,,,0.00,VWS V14.01,2013-02-03 18:20:00,
2013-02-03 13:25:00,58.7,42.7,29.47,South,185,4.9,21.5,55,0.00,,,0.00,VWS V14.01,2013-02-03 18:25:00,
2013-02-03 13:30:00,58.9,42.9,29.47,SE,127,6.3,21.5,55,0.00,,,0.00,VWS V14.01,2013-02-03 18:30:00,
2013-02-03 13:35:00,58.9,42.9,29.47,SE,127,6.3,21.5,55,0.00,,,0.00,VWS V14.01,2013-02-03 18:35:00,
2013-02-03 14:35:00,60.0,40.4,29.47,East,86,3.6,19.2,48,0.00,,,0.00,VWS V14.01,2013-02-03 19:35:00,
2013-02-03 14:40:00,60.2,40.6,29.47,ENE,63,6.3,19.2,48,0.00,,,0.00,VWS V14.01,2013-02-03 19:40:00,
2013-02-03 14:45:00,60.2,40.6,29.47,SE,128,2.2,19.2,48,0.00,,,0.00,VWS V14.01,2013-02-03 19:45:00,
2013-02-03 14:50:00,60.2,40.6,29.47,SE,128,2.2,19.2,48,0.00,,,0.00,VWS V14.01,2013-02-03 19:50:00,
2013-02-03 15:51:00,60.7,38.5,29.47,ESE,113,3.1,19.2,44,0.00,,,0.00,VWS V14.01,2013-02-03 20:51:00,
2013-02-03 15:56:00,60.5,38.3,29.47,ENE,71,12.8,19.2,44,0.00,,,0.00,VWS V14.01,2013-02-03 20:56:00,
2013-02-03 16:00:00,60.0,37.8,29.47,East,92,5.8,19.2,44,0.00,,,0.00,VWS V14.01,2013-02-03 21:00:00,
2013-02-03 16:01:00,60.0,37.8,29.47,East,92,5.8,19.2,44,0.00,,,0.00,VWS V14.01,2013-02-03 21:01:00,
2013-02-03 16:06:00,60.0,37.8,29.47,East,92,5.8,19.2,44,0.00,,,0.00,VWS V14.01,2013-02-03 21:06:00,
2013-02-03 17:06:00,58.9,36.9,29.50,East,92,3.6,15.4,44,0.00,,,0.00,VWS V14.01,2013-02-03 22:06:00,
2013-02-03 17:11:00,58.9,36.9,29.50,SSE,168,0.0,15.4,44,0.00,,,0.00,VWS V14.01,2013-02-03 22:11:00,
2013-02-03 17:16:00,58.9,36.9,29.50,ESE,106,3.1,10.1,44,0.00,,,0.00,VWS V14.01,2013-02-03 22:16:00,
2013-02-03 17:21:00,58.7,36.7,29.50,East,80,0.0,10.1,44,0.00,,,0.00,VWS V14.01,2013-02-03 22:21:00,
2013-02-03 17:26:00,58.2,36.2,29.50,SSE,159,15.4,16.3,44,0.00,,,0.00,VWS V14.01,2013-02-03 22:26:00,
2013-02-03 17:31:00,57.6,35.7,29.50,SSE,163,3.1,16.3,44,0.00,,,0.00,VWS V14.01,2013-02-03 22:31:00,
2013-02-03 17:36:00,56.9,35.1,29.50,East,94,4.9,16.3,44,0.00,,,0.00,VWS V14.01,2013-02-03 22:36:00,
2013-02-03 17:41:00,56.2,34.4,29.50,ESE,106,5.8,16.3,44,0.00,,,0.00,VWS V14.01,2013-02-03 22:41:00,
2013-02-03 17:46:00,55.7,35.2,29.50,East,85,5.4,5.8,46,0.00,,,0.00,VWS V14.01,2013-02-03 22:46:00,
2013-02-03 17:51:00,54.9,34.6,29.53,ESE,113,0.0,6.3,46,0.00,,,0.00,VWS V14.01,2013-02-03 22:51:00,
2013-02-03 17:56:00,54.4,34.1,29.53,East,81,2.7,6.3,46,0.00,,,0.00,VWS V14.01,2013-02-03 22:56:00,
2013-02-03 18:01:00,54.0,33.7,29.53,ESE,118,5.4,6.3,46,0.00,,,0.00,VWS V14.01,2013-02-03 23:01:00,
2013-02-03 18:06:00,53.7,33.4,29.50,East,99,0.0,6.3,46,0.00,,,0.00,VWS V14.01,2013-02-03 23:06:00,
2013-02-03 18:11:00,53.0,32.8,29.50,SSE,161,2.7,6.3,46,0.00,,,0.00,VWS V14.01,2013-02-03 23:11:00,
2013-02-03 18:16:00,52.4,33.5,29.50,SSE,166,0.0,2.7,48,0.00,,,0.00,VWS V14.01,2013-02-03 23:16:00,
2013-02-03 18:21:00,51.5,32.7,29.53,SSE,166,0.0,2.7,48,0.00,,,0.00,VWS V14.01,2013-02-03 23:21:00,
2013-02-03 18:26:00,50.8,32.0,29.53,SSE,166,0.0,2.7,48,0.00,,,0.00,VWS V14.01,2013-02-03 23:26:00,
2013-02-03 18:31:00,50.4,31.7,29.53,SSE,166,0.0,2.7,48,0.00,,,0.00,VWS V14.01,2013-02-03 23:31:00,
2013-02-03 18:36:00,49.5,30.8,29.53,East,95,0.0,2.7,48,0.00,,,0.00,VWS V14.01,2013-02-03 23:36:00,
2013-02-03 18:41:00,48.8,30.2,29.53,East,96,0.0,2.7,48,0.00,,,0.00,VWS V14.01,2013-02-03 23:41:00,
2013-02-03 18:43:00,48.8,30.2,29.53,East,96,0.0,2.7,48,0.00,,,0.00,VWS V14.01,2013-02-03 23:43:00,
2013-02-03 18:46:00,48.3,29.7,29.53,East,88,0.0,2.7,48,0.00,,,0.00,VWS V14.01,2013-02-03 23:46:00,
2013-02-03 18:51:00,47.9,29.3,29.53,East,79,0.0,4.9,48,0.00,,,0.00,VWS V14.01,2013-02-03 23:51:00,
2013-02-03 18:56:00,47.9,29.3,29.53,ENE,75,0.0,4.9,48,0.00,,,0.00,VWS V14.01,2013-02-03 23:56:00,
2013-02-03 19:01:00,47.9,29.3,29.53,ESE,118,0.0,4.9,48,0.00,,,0.00,VWS V14.01,2013-02-04 00:01:00,
2013-02-03 19:06:00,47.9,29.3,29.53,ENE,77,0.0,4.9,48,0.00,,,0.00,VWS V14.01,2013-02-04 00:06:00,
2013-02-03 19:11:00,47.7,29.2,29.53,ENE,76,0.0,4.9,48,0.00,,,0.00,VWS V14.01,2013-02-04 00:11:00,
2013-02-03 19:13:00,47.7,29.2,29.53,ENE,76,0.0,4.9,48,0.00,,,0.00,VWS V14.01,2013-02-04 00:13:00,
2013-02-03 19:16:00,47.6,32.3,29.53,ENE,68,0.0,0.0,55,0.00,,,0.00,VWS V14.01,2013-02-04 00:16:00,
2013-02-03 19:21:00,47.2,28.7,29.53,ENE,70,2.7,4.0,48,0.00,,,0.00,VWS V14.01,2013-02-04 00:21:00,
2013-02-03 19:26:00,46.8,31.6,29.53,East,91,0.0,4.0,55,0.00,,,0.00,VWS V14.01,2013-02-04 00:26:00,
2013-02-03 19:31:00,46.7,31.5,29.53,East,91,0.0,4.0,55,0.00,,,0.00,VWS V14.01,2013-02-04 00:31:00,
2013-02-03 19:36:00,46.3,31.1,29.53,East,95,0.0,4.0,55,0.00,,,0.00,VWS V14.01,2013-02-04 00:36:00,
2013-02-03 19:41:00,46.1,31.0,29.53,North,2,3.1,4.0,55,0.00,,,0.00,VWS V14.01,2013-02-04 00:41:00,
2013-02-03 19:46:00,45.8,30.6,29.53,North,3,0.0,3.1,55,0.00,,,0.00,VWS V14.01,2013-02-04 00:46:00,
2013-02-03 19:51:00,45.6,30.5,29.56,WSW,240,0.0,3.1,55,0.00,,,0.00,VWS V14.01,2013-02-04 00:51:00,
2013-02-03 19:56:00,45.8,30.6,29.56,SE,143,0.0,3.1,55,0.00,,,0.00,VWS V14.01,2013-02-04 00:56:00,
2013-02-03 20:01:00,45.9,30.8,29.56,NNE,14,2.7,3.6,55,0.00,,,0.00,VWS V14.01,2013-02-04 01:01:00,
2013-02-03 20:06:00,46.3,31.1,29.56,East,101,0.0,4.9,55,0.00,,,0.00,VWS V14.01,2013-02-04 01:06:00,
2013-02-03 20:11:00,46.7,31.5,29.56,NE,54,0.0,4.9,55,0.00,,,0.00,VWS V14.01,2013-02-04 01:11:00,
2013-02-03 20:13:00,46.7,31.5,29.56,NE,54,0.0,4.9,55,0.00,,,0.00,VWS V14.01,2013-02-04 01:13:00,
2013-02-03 20:21:00,47.0,29.6,29.56,SW,229,0.0,6.3,51,0.00,,,0.00,VWS V14.01,2013-02-04 01:21:00,
2013-02-03 20:26:00,47.0,29.6,29.56,ESE,120,0.0,6.3,51,0.00,,,0.00,VWS V14.01,2013-02-04 01:26:00,
2013-02-03 20:31:00,46.8,29.5,29.56,SE,125,0.0,6.3,51,0.00,,,0.00,VWS V14.01,2013-02-04 01:31:00,
2013-02-03 20:36:00,46.8,29.5,29.56,WSW,251,2.7,6.3,51,0.00,,,0.00,VWS V14.01,2013-02-04 01:36:00,
2013-02-03 20:41:00,46.7,29.3,29.56,SE,127,0.0,6.3,51,0.00,,,0.00,VWS V14.01,2013-02-04 01:41:00,
2013-02-03 20:46:00,46.7,29.3,29.56,East,85,2.7,6.3,51,0.00,,,0.00,VWS V14.01,2013-02-04 01:46:00,
2013-02-03 20:51:00,46.8,29.5,29.56,ESE,109,0.0,6.3,51,0.00,,,0.00,VWS V14.01,2013-02-04 01:51:00,
2013-02-03 20:53:00,46.8,29.5,29.56,ESE,109,0.0,6.3,51,0.00,,,0.00,VWS V14.01,2013-02-04 01:53:00,
2013-02-03 20:56:00,46.5,29.1,29.56,ESE,120,0.0,5.4,51,0.00,,,0.00,VWS V14.01,2013-02-04 01:56:00,
2013-02-03 21:01:00,46.5,29.1,29.56,South,191,0.0,5.4,51,0.00,,,0.00,VWS V14.01,2013-02-04 02:01:00,
2013-02-03 21:06:00,46.3,29.0,29.56,East,81,2.7,5.4,51,0.00,,,0.00,VWS V14.01,2013-02-04 02:06:00,
2013-02-03 21:11:00,46.1,28.8,29.56,SSW,207,0.0,5.4,51,0.00,,,0.00,VWS V14.01,2013-02-04 02:11:00,
2013-02-03 21:16:00,46.1,28.8,29.56,SSW,207,0.0,5.4,51,0.00,,,0.00,VWS V14.01,2013-02-04 02:16:00,
2013-02-03 21:21:00,45.6,30.5,29.56,SSW,192,0.0,5.4,55,0.00,,,0.00,VWS V14.01,2013-02-04 02:21:00,
2013-02-03 21:23:00,45.6,30.5,29.56,SSW,192,0.0,5.4,55,0.00,,,0.00,VWS V14.01,2013-02-04 02:23:00,
2013-02-03 21:26:00,45.0,31.0,29.56,SSW,192,0.0,0.0,58,0.00,,,0.00,VWS V14.01,2013-02-04 02:26:00,
2013-02-03 21:31:00,44.9,30.8,29.56,South,180,0.0,0.0,58,0.00,,,0.00,VWS V14.01,2013-02-04 02:31:00,
2013-02-03 21:36:00,44.1,30.1,29.56,South,180,0.0,0.0,58,0.00,,,0.00,VWS V14.01,2013-02-04 02:36:00,
2013-02-03 21:41:00,43.2,29.3,29.56,SSE,152,0.0,0.0,58,0.00,,,0.00,VWS V14.01,2013-02-04 02:41:00,
2013-02-03 21:46:00,43.1,29.1,29.56,SSE,150,0.0,0.0,58,0.00,,,0.00,VWS V14.01,2013-02-04 02:46:00,
2013-02-03 21:51:00,42.5,28.6,29.56,SSE,149,0.0,0.0,58,0.00,,,0.00,VWS V14.01,2013-02-04 02:51:00,
2013-02-03 21:53:00,42.5,28.6,29.56,SSE,149,0.0,0.0,58,0.00,,,0.00,VWS V14.01,2013-02-04 02:53:00,
2013-02-03 22:01:00,41.8,27.9,29.56,ENE,74,0.0,4.0,58,0.00,,,0.00,VWS V14.01,2013-02-04 03:01:00,
2013-02-03 22:06:00,41.6,28.7,29.56,ENE,74,0.0,4.0,60,0.00,,,0.00,VWS V14.01,2013-02-04 03:06:00,
2013-02-03 22:11:00,42.0,30.9,29.56,ENE,76,0.0,4.0,64,0.00,,,0.00,VWS V14.01,2013-02-04 03:11:00,
2013-02-03 22:16:00,42.0,30.9,29.56,ENE,75,0.0,4.0,64,0.00,,,0.00,VWS V14.01,2013-02-04 03:16:00,
2013-02-03 22:21:00,42.0,30.9,29.56,ESE,104,0.0,4.0,64,0.00,,,0.00,VWS V14.01,2013-02-04 03:21:00,
2013-02-03 22:23:00,42.0,30.9,29.56,ESE,104,0.0,4.0,64,0.00,,,0.00,VWS V14.01,2013-02-04 03:23:00,
2013-02-03 22:26:00,42.5,31.4,29.56,East,83,0.0,0.0,64,0.00,,,0.00,VWS V14.01,2013-02-04 03:26:00,
2013-02-03 22:31:00,42.7,31.5,29.56,East,83,0.0,0.0,64,0.00,,,0.00,VWS V14.01,2013-02-04 03:31:00,
2013-02-03 22:36:00,42.7,31.5,29.56,East,85,0.0,0.0,64,0.00,,,0.00,VWS V14.01,2013-02-04 03:36:00,
2013-02-03 22:41:00,42.5,31.4,29.56,East,89,0.0,3.6,64,0.00,,,0.00,VWS V14.01,2013-02-04 03:41:00,
2013-02-03 22:46:00,42.3,31.2,29.56,ESE,122,0.0,3.6,64,0.00,,,0.00,VWS V14.01,2013-02-04 03:46:00,
2013-02-03 22:52:00,42.2,31.0,29.56,SW,218,0.0,3.6,64,0.00,,,0.00,VWS V14.01,2013-02-04 03:52:00,
2013-02-03 22:53:00,42.2,31.0,29.56,SW,218,0.0,3.6,64,0.00,,,0.00,VWS V14.01,2013-02-04 03:53:00,
2013-02-03 22:57:00,41.1,30.9,29.56,SW,218,0.0,0.0,67,0.00,,,0.00,VWS V14.01,2013-02-04 03:57:00,
2013-02-03 23:02:00,40.5,30.4,29.56,SW,218,0.0,0.0,67,0.00,,,0.00,VWS V14.01,2013-02-04 04:02:00,
2013-02-03 23:07:00,39.8,29.7,29.56,South,175,0.0,0.0,67,0.00,,,0.00,VWS V14.01,2013-02-04 04:07:00,
2013-02-03 23:12:00,39.5,29.3,29.56,South,174,0.0,0.0,67,0.00,,,0.00,VWS V14.01,2013-02-04 04:12:00,
2013-02-03 23:17:00,39.3,30.0,29.56,South,174,0.0,0.0,69,0.00,,,0.00,VWS V14.01,2013-02-04 04:17:00,
2013-02-03 23:22:00,38.9,29.6,29.56,South,174,0.0,0.0,69,0.00,,,0.00,VWS V14.01,2013-02-04 04:22:00,
2013-02-03 23:23:00,38.9,29.6,29.56,South,174,0.0,0.0,69,0.00,,,0.00,VWS V14.01,2013-02-04 04:23:00,
2013-02-03 23:27:00,38.4,29.1,29.56,South,174,0.0,0.0,69,0.00,,,0.00,VWS V14.01,2013-02-04 04:27:00,
2013-02-03 23:32:00,38.0,29.6,29.56,South,174,0.0,0.0,71,0.00,,,0.00,VWS V14.01,2013-02-04 04:32:00,
2013-02-03 23:37:00,37.5,29.0,29.56,South,174,0.0,0.0,71,0.00,,,0.00,VWS V14.01,2013-02-04 04:37:00,
2013-02-03 23:42:00,36.9,29.3,29.56,South,174,0.0,0.0,74,0.00,,,0.00,VWS V14.01,2013-02-04 04:42:00,
2013-02-03 23:47:00,36.6,29.0,29.56,South,174,0.0,0.0,74,0.00,,,0.00,VWS V14.01,2013-02-04 04:47:00,
2013-02-03 23:52:00,36.2,30.1,29.56,SSE,163,0.0,0.0,78,0.00,,,0.00,VWS V14.01,2013-02-04 04:52:00,
2013-02-03 23:57:00,36.8,34.0,29.56,SSE,163,0.0,0.0,90,0.00,,,0.00,VWS V14.01,2013-02-04 04:57:00,